timestamp,wind_dir_avg,wind_spd_avg,wind_spd_max_dir,wind_spd_gust,battery_voltage,lat,long
2023-07-10 00:04:00+00:00,67.0,3.02,69.0,3.76,12.49,47.59359,-54.27349
2023-07-10 00:14:01+00:00,52.0,2.85,53.0,3.1,12.49,47.59359,-54.27349
2023-07-10 00:24:01+00:00,64.0,2.82,66.0,3.17,12.49,47.59359,-54.27349
2023-07-10 00:34:01+00:00,61.0,2.76,60.0,3.28,12.49,47.59359,-54.27349
2023-07-10 00:44:01+00:00,62.0,3.95,67.0,4.94,12.49,47.59359,-54.27349
2023-07-10 00:54:01+00:00,70.0,4.98,70.0,5.87,12.49,47.59359,-54.27349
2023-07-10 01:04:01+00:00,66.0,4.0,71.0,4.57,12.49,47.59359,-54.27349
2023-07-10 01:14:01+00:00,52.0,2.83,52.0,3.03,12.41,47.59359,-54.27349
2023-07-10 01:24:01+00:00,66.0,3.69,67.0,3.96,12.41,47.59359,-54.27349
2023-07-10 01:34:01+00:00,70.0,4.41,70.0,4.99,12.41,47.59359,-54.27349
2023-07-10 01:44:01+00:00,55.0,4.76,54.0,5.16,12.41,47.59359,-54.27349
2023-07-10 01:54:01+00:00,51.0,5.11,49.0,5.67,12.41,47.59359,-54.27349
2023-07-10 02:04:01+00:00,50.0,6.1,51.0,6.97,12.41,47.59359,-54.27349
2023-07-10 02:14:00+00:00,53.0,5.5,54.0,5.85,12.41,47.59359,-54.27349
2023-07-10 02:24:00+00:00,53.0,5.75,55.0,6.3,12.41,47.59359,-54.27349
2023-07-10 02:34:00+00:00,52.0,6.19,53.0,6.95,12.41,47.59359,-54.27349
2023-07-10 02:44:00+00:00,55.0,6.44,56.0,6.94,12.41,47.59359,-54.27349
2023-07-10 02:54:00+00:00,51.0,6.74,50.0,7.86,12.41,47.59359,-54.27349
2023-07-10 03:04:00+00:00,48.0,7.26,49.0,8.12,12.41,47.59359,-54.27349
2023-07-10 03:14:01+00:00,47.0,8.33,51.0,9.49,12.41,47.59359,-54.27349
2023-07-10 03:24:01+00:00,50.0,7.81,46.0,8.49,12.41,47.59359,-54.27349
2023-07-10 03:34:01+00:00,52.0,7.81,56.0,8.65,12.41,47.59359,-54.27349
2023-07-10 03:44:01+00:00,51.0,8.27,54.0,10.33,12.41,47.59359,-54.27349
2023-07-10 03:54:01+00:00,51.0,7.8,54.0,10.09,12.41,47.59359,-54.27349
2023-07-10 04:04:01+00:00,47.0,7.16,56.0,8.51,12.41,47.59359,-54.27349
2023-07-10 04:14:00+00:00,48.0,7.01,51.0,8.2,12.41,47.59359,-54.27349
2023-07-10 04:24:00+00:00,48.0,6.33,51.0,7.87,12.41,47.59359,-54.27349
2023-07-10 04:34:00+00:00,49.0,7.01,50.0,8.58,12.41,47.59359,-54.27349
2023-07-10 04:44:00+00:00,49.0,5.92,48.0,6.81,12.41,47.59359,-54.27349
2023-07-10 04:54:00+00:00,52.0,5.39,54.0,5.91,12.41,47.59359,-54.27349
2023-07-10 05:04:00+00:00,53.0,5.82,53.0,6.62,12.41,47.59359,-54.27349
2023-07-10 05:14:00+00:00,49.0,5.49,46.0,6.1,12.33,47.59359,-54.27349
2023-07-10 05:24:00+00:00,48.0,6.09,46.0,6.85,12.33,47.59359,-54.27349
2023-07-10 05:34:00+00:00,50.0,6.13,54.0,7.21,12.33,47.59359,-54.27349
2023-07-10 05:44:00+00:00,53.0,5.45,54.0,6.01,12.33,47.59359,-54.27349
2023-07-10 05:54:00+00:00,53.0,5.13,51.0,5.54,12.33,47.59359,-54.27349
2023-07-10 06:04:00+00:00,53.0,5.29,58.0,6.54,12.33,47.59359,-54.27349
2023-07-10 06:14:00+00:00,53.0,5.18,53.0,5.69,12.25,47.59359,-54.27349
2023-07-10 06:24:00+00:00,50.0,5.35,57.0,6.6,12.25,47.59359,-54.27349
2023-07-10 06:34:00+00:00,52.0,5.29,55.0,5.66,12.25,47.59359,-54.27349
2023-07-10 06:44:00+00:00,61.0,5.05,60.0,5.82,12.25,47.59359,-54.27349
2023-07-10 06:54:00+00:00,67.0,6.65,70.0,8.88,12.25,47.59359,-54.27349
2023-07-10 07:04:00+00:00,61.0,7.13,67.0,9.62,12.25,47.59359,-54.27349
2023-07-10 07:14:00+00:00,57.0,5.93,67.0,8.16,12.25,47.59359,-54.27349
2023-07-10 07:24:00+00:00,63.0,5.07,67.0,6.98,12.25,47.59359,-54.27349
2023-07-10 07:34:00+00:00,65.0,5.26,72.0,10.08,12.25,47.59359,-54.27349
2023-07-10 07:44:00+00:00,54.0,5.3,61.0,5.75,12.25,47.59359,-54.27349
2023-07-10 07:54:00+00:00,51.0,5.34,59.0,6.61,12.25,47.59359,-54.27349
2023-07-10 08:04:00+00:00,44.0,5.15,43.0,5.69,12.25,47.59359,-54.27349
2023-07-10 08:14:00+00:00,44.0,5.48,43.0,6.17,12.25,47.59359,-54.27349
2023-07-10 08:24:00+00:00,42.0,4.93,42.0,5.37,12.25,47.59359,-54.27349
2023-07-10 08:34:00+00:00,39.0,4.92,39.0,5.59,12.25,47.59359,-54.27349
2023-07-10 08:44:00+00:00,48.0,5.1,48.0,5.62,12.25,47.59359,-54.27349
2023-07-10 08:54:00+00:00,57.0,4.75,57.0,5.14,12.25,47.59359,-54.27349
2023-07-10 09:04:00+00:00,48.0,4.99,50.0,5.39,12.25,47.59359,-54.27349
2023-07-10 09:14:00+00:00,53.0,5.04,53.0,5.54,12.33,47.59359,-54.27349
2023-07-10 09:24:00+00:00,58.0,5.54,54.0,6.01,12.33,47.59359,-54.27349
2023-07-10 09:34:00+00:00,56.0,4.98,55.0,5.31,12.33,47.59359,-54.27349
2023-07-10 09:44:00+00:00,61.0,5.11,57.0,5.44,12.33,47.59359,-54.27349
2023-07-10 09:54:00+00:00,58.0,4.97,57.0,5.58,12.33,47.59359,-54.27349
2023-07-10 10:04:00+00:00,61.0,4.81,57.0,5.63,12.33,47.59359,-54.27349
2023-07-10 10:14:00+00:00,65.0,5.3,74.0,6.87,12.65,47.59359,-54.27349
2023-07-10 10:24:00+00:00,66.0,5.36,64.0,6.12,12.65,47.59359,-54.27349
2023-07-10 10:34:00+00:00,60.0,4.62,55.0,5.63,12.65,47.59359,-54.27349
2023-07-10 10:44:00+00:00,63.0,5.08,59.0,5.63,12.65,47.59359,-54.27349
2023-07-10 10:54:00+00:00,56.0,4.91,54.0,5.39,12.65,47.59359,-54.27349
2023-07-10 11:04:00+00:00,53.0,4.9,52.0,5.64,12.65,47.59359,-54.27349
2023-07-10 11:14:01+00:00,52.0,5.19,52.0,5.72,13.29,47.59359,-54.27349
2023-07-10 11:24:01+00:00,50.0,5.19,49.0,5.67,13.29,47.59359,-54.27349
2023-07-10 11:34:01+00:00,50.0,5.16,50.0,5.84,13.29,47.59359,-54.27349
2023-07-10 11:44:01+00:00,50.0,5.43,48.0,6.22,13.29,47.59359,-54.27349
2023-07-10 11:54:01+00:00,47.0,5.59,44.0,5.98,13.29,47.59359,-54.27349
2023-07-10 12:04:01+00:00,40.0,4.76,39.0,5.42,13.29,47.59359,-54.27349
2023-07-10 12:14:00+00:00,45.0,5.06,44.0,5.67,13.68,47.59359,-54.27349
2023-07-10 12:24:00+00:00,47.0,5.2,44.0,5.7,13.68,47.59359,-54.27349
2023-07-10 12:34:00+00:00,41.0,4.83,38.0,5.42,13.68,47.59359,-54.27349
2023-07-10 12:44:00+00:00,50.0,4.84,48.0,5.41,13.68,47.59359,-54.27349
2023-07-10 12:54:00+00:00,54.0,5.55,53.0,6.2,13.68,47.59359,-54.27349
2023-07-10 13:04:00+00:00,54.0,5.33,54.0,5.89,13.68,47.59359,-54.27349
2023-07-10 13:14:01+00:00,58.0,5.29,56.0,6.01,13.68,47.59359,-54.27349
2023-07-10 13:24:01+00:00,51.0,4.93,50.0,5.93,13.68,47.59359,-54.27349
2023-07-10 13:34:01+00:00,58.0,4.89,62.0,5.39,13.68,47.59359,-54.27349
2023-07-10 13:44:01+00:00,61.0,5.06,60.0,5.63,13.68,47.59359,-54.27349
2023-07-10 13:54:01+00:00,51.0,4.81,52.0,5.57,13.68,47.59359,-54.27349
2023-07-10 14:04:01+00:00,51.0,4.82,48.0,5.41,13.68,47.59359,-54.27349
2023-07-10 14:14:00+00:00,48.0,4.79,49.0,5.33,13.6,47.59359,-54.27349
2023-07-10 14:24:00+00:00,52.0,4.28,53.0,4.99,13.6,47.59359,-54.27349
2023-07-10 14:34:00+00:00,52.0,3.91,57.0,4.58,13.6,47.59359,-54.27349
2023-07-10 14:44:00+00:00,40.0,4.45,39.0,4.97,13.6,47.59359,-54.27349
2023-07-10 14:54:00+00:00,45.0,4.67,41.0,5.19,13.6,47.59359,-54.27349
2023-07-10 15:04:00+00:00,49.0,4.73,50.0,5.62,13.6,47.59359,-54.27349
2023-07-10 15:14:00+00:00,41.0,4.83,44.0,5.28,13.68,47.59359,-54.27349
2023-07-10 15:24:00+00:00,40.0,4.74,40.0,5.33,13.68,47.59359,-54.27349
2023-07-10 15:34:00+00:00,42.0,4.73,43.0,5.32,13.68,47.59359,-54.27349
2023-07-10 15:44:00+00:00,57.0,4.83,61.0,5.27,13.68,47.59359,-54.27349
2023-07-10 15:54:00+00:00,66.0,3.8,64.0,4.66,13.68,47.59359,-54.27349
2023-07-10 16:04:00+00:00,58.0,2.98,55.0,3.75,13.68,47.59359,-54.27349
2023-07-10 16:14:00+00:00,64.0,3.34,62.0,3.6,13.68,47.59359,-54.27349
2023-07-10 16:24:00+00:00,53.0,2.51,51.0,3.0,13.68,47.59359,-54.27349
2023-07-10 16:34:00+00:00,45.0,2.38,43.0,2.66,13.68,47.59359,-54.27349
2023-07-10 16:44:00+00:00,66.0,2.55,59.0,3.23,13.68,47.59359,-54.27349
2023-07-10 16:54:00+00:00,66.0,3.58,73.0,4.62,13.68,47.59359,-54.27349
2023-07-10 17:04:00+00:00,69.0,3.53,73.0,4.0,13.68,47.59359,-54.27349
2023-07-10 17:14:00+00:00,60.0,4.71,61.0,5.46,14.16,47.59359,-54.27349
2023-07-10 17:24:00+00:00,56.0,4.68,56.0,5.32,14.16,47.59359,-54.27349
2023-07-10 17:34:00+00:00,50.0,4.92,51.0,5.2,14.16,47.59359,-54.27349
2023-07-10 17:44:00+00:00,48.0,4.66,48.0,4.83,14.16,47.59359,-54.27349
2023-07-10 17:54:00+00:00,50.0,4.8,51.0,5.07,14.16,47.59359,-54.27349
2023-07-10 18:04:00+00:00,52.0,4.78,53.0,5.12,14.16,47.59359,-54.27349
2023-07-10 18:14:00+00:00,51.0,5.34,54.0,5.68,13.76,47.59359,-54.27349
2023-07-10 18:24:00+00:00,49.0,4.71,51.0,4.97,13.76,47.59359,-54.27349
2023-07-10 18:34:00+00:00,49.0,5.23,49.0,5.6,13.76,47.59359,-54.27349
2023-07-10 18:44:00+00:00,50.0,6.38,54.0,7.62,13.76,47.59359,-54.27349
2023-07-10 18:54:00+00:00,52.0,6.19,55.0,6.85,13.76,47.59359,-54.27349
2023-07-10 19:04:00+00:00,43.0,5.51,48.0,6.36,13.76,47.59359,-54.27349
2023-07-10 19:14:00+00:00,24.0,4.13,22.0,4.67,13.68,47.59359,-54.27349
2023-07-10 19:24:00+00:00,39.0,6.14,37.0,6.64,13.68,47.59359,-54.27349
2023-07-10 19:34:00+00:00,39.0,6.69,50.0,7.77,13.68,47.59359,-54.27349
2023-07-10 19:44:00+00:00,34.0,6.45,33.0,6.9,13.68,47.59359,-54.27349
2023-07-10 19:54:00+00:00,36.0,7.22,36.0,7.53,13.68,47.59359,-54.27349
2023-07-10 20:04:00+00:00,35.0,6.86,35.0,7.4,13.68,47.59359,-54.27349
2023-07-10 20:14:00+00:00,33.0,5.68,32.0,6.16,13.68,47.59359,-54.27349
2023-07-10 20:24:00+00:00,35.0,5.45,36.0,6.06,13.68,47.59359,-54.27349
2023-07-10 20:34:00+00:00,17.0,4.61,14.0,5.26,13.68,47.59359,-54.27349
2023-07-10 20:44:00+00:00,20.0,6.12,18.0,6.54,13.68,47.59359,-54.27349
2023-07-10 20:54:00+00:00,29.0,6.3,32.0,6.7,13.68,47.59359,-54.27349
2023-07-10 21:04:00+00:00,31.0,5.85,33.0,6.25,13.68,47.59359,-54.27349
2023-07-10 21:14:00+00:00,33.0,5.42,40.0,6.12,13.6,47.59359,-54.27349
2023-07-10 21:24:00+00:00,42.0,6.0,44.0,6.49,13.6,47.59359,-54.27349
2023-07-10 21:34:00+00:00,44.0,5.73,45.0,6.16,13.6,47.59359,-54.27349
2023-07-10 21:44:00+00:00,42.0,5.83,46.0,6.27,13.6,47.59359,-54.27349
2023-07-10 21:54:00+00:00,41.0,4.3,38.0,4.95,13.6,47.59359,-54.27349
2023-07-10 22:04:00+00:00,33.0,5.24,33.0,5.8,13.6,47.59359,-54.27349
2023-07-10 22:14:00+00:00,44.0,4.63,41.0,5.35,13.37,47.59359,-54.27349
2023-07-10 22:24:00+00:00,42.0,5.05,48.0,5.69,13.37,47.59359,-54.27349
2023-07-10 22:34:00+00:00,45.0,5.59,44.0,5.97,13.37,47.59359,-54.27349
2023-07-10 22:44:00+00:00,35.0,5.1,38.0,5.45,13.37,47.59359,-54.27349
2023-07-10 22:54:00+00:00,32.0,5.09,34.0,5.38,13.37,47.59359,-54.27349
2023-07-10 23:04:00+00:00,34.0,4.67,35.0,5.34,13.37,47.59359,-54.27349
2023-07-10 23:14:00+00:00,21.0,5.05,24.0,5.59,13.05,47.59359,-54.27349
2023-07-10 23:24:00+00:00,60.0,4.88,59.0,5.87,13.05,47.59359,-54.27349
2023-07-10 23:34:00+00:00,66.0,5.74,66.0,7.07,13.05,47.59359,-54.27349
2023-07-10 23:44:00+00:00,63.0,5.57,62.0,6.89,13.05,47.59359,-54.27349
2023-07-10 23:54:00+00:00,68.0,7.07,69.0,7.8,13.05,47.59359,-54.27349
